Regional Weather Roundup
Issued by NWS Albany, NY

Home | Current Version | Previous Version | Text Only | Print | Product List | Glossary On
Versions: 1 2 3 4 5 6 7 8 9 10 11 12 13 14 15 16 17 18 19 20 21 22 23 24 25 26 27 28 29 30 31 32 33 34 35 36 37 38 39 40 41 42 43 44 45 46 47 48 49
000
ASUS41 KALY 281310
RWRALY

NEW YORK STATE HOURLY WEATHER ROUNDUP
NATIONAL WEATHER SERVICE ALBANY NY
800 AM EST SUN DEC 28 2014

NOTE: "FAIR" INDICATES FEW OR NO CLOUDS BELOW 12,000 FEET WITH NO
SIGNIFICANT WEATHER AND/OR NO OBSTRUCTIONS TO VISIBILITY.

NYZ032-033-038>043-046>054-057>066-NYZ062>081-281400-
EAST


CITY           SKY/WX    TMP DP  RH WIND       PRES   REMARKS
ALBANY         LGT RAIN  43  39  86 S8        29.84R
GLENS FALLS    LGT RAIN  42  40  92 S12       29.81R
POUGHKEEPSIE   LGT RAIN  44  40  85 CALM      29.85F
NEWBURGH       CLOUDY    43  39  87 SW7       29.85F
MONTGOMERY     CLOUDY    42  39  89 W5        29.84F
WHITE PLAINS   LGT RAIN  43  40  89 S3        29.87F FOG
ISLIP          LGT RAIN  46  40  79 SW8       29.89F
NEW YORK CITY  LGT RAIN  46  40  79 S6        29.91F
CENTRAL PARK   LGT RAIN  45  39  79 CALM      29.92F
$$

NYZ005>009-017-018-044>046-055-056-281400-
CENTRAL


CITY           SKY/WX    TMP DP  RH WIND       PRES   REMARKS
FULTON         CLOUDY    40  35  83 W13G20    29.90R WCI  32
SYRACUSE       CLOUDY    40  37  89 W13       29.91R WCI  32
ROME           LGT RAIN  40  38  93 W14       29.89R WCI  32
ELMIRA         CLOUDY    44  39  82 NW13      29.90R
BINGHAMTON     FOG       41  41 100 W7        29.85S VSB 1/2
MONTICELLO     CLOUDY    39  39 100 NW5       29.85F
$$

NYZ026>034-041>043-281400-
NORTH


CITY           SKY/WX    TMP DP  RH WIND       PRES   REMARKS
WATERTOWN      CLOUDY    40  32  73 W15       29.88R WCI  32
FORT DRUM      NOT AVBL
MASSENA        CLOUDY    42  33  70 W10       29.79R
SARANAC LAKE   CLOUDY    37  35  92 W10G18    29.73R WCI  30
PLATTSBURGH      N/A     46  38  73 W6        29.74R
$$

NYZ001>004-010>016-019>021-281400-
WEST


CITY           SKY/WX    TMP DP  RH WIND       PRES   REMARKS
NIAGARA FALLS  CLOUDY    35  29  78 NW13      29.97R WCI  26
BUFFALO        CLOUDY    38  33  82 NW9       29.97R WCI  31
DUNKIRK        CLOUDY    38  34  85 W9        29.99R WCI  31
JAMESTOWN      CLOUDY    34  30  86 W6        29.96R WCI  29
WELLSVILLE     CLOUDY    35  32  88 W12       29.91R WCI  27
ROCHESTER      CLOUDY    39  34  82 W13G21    29.93R WCI  31
PENN YAN       CLOUDY    40  33  76 W13G20    29.92R WCI  32
$$

             KEY
       WCI = WIND CHILL INDEX
       VSB = VISIBILITY
       HX  = HEAT INDEX
$$



USA.gov is the U.S. government's official web portal to all federal, state and local government web resources and services.